| time (UTC) | temp F | wind direction | speed MPH | gust MPH | rain 1hr in | rain 24hr in | rain mn in | humidity % | barometer mb |
| 20260504202013 | 74 | 230 | 12.0 | 24.0 | 0.00 | 0.00 | 0.00 | 56 | 1001.0 |
| 20260504201510 | 75 | 226 | 9.0 | 16.0 | 0.00 | 0.00 | 0.00 | 57 | 1001.0 |
| 20260504201008 | 74 | 244 | 9.0 | 18.0 | 0.00 | 0.00 | 0.00 | 57 | 1001.4 |
| 20260504200504 | 74 | 227 | 17.0 | 20.0 | 0.00 | 0.00 | 0.00 | 59 | 1001.2 |
| 20260504200001 | 73 | 232 | 13.0 | 15.0 | 0.00 | 0.00 | 0.00 | 57 | 1001.2 |
| 20260504195457 | 73 | 228 | 18.0 | 27.0 | 0.00 | 0.00 | 0.00 | 61 | 1001.6 |
| 20260504194954 | 74 | 238 | 11.0 | 15.0 | 0.00 | 0.00 | 0.00 | 58 | 1001.7 |
| 20260504194450 | 73 | 211 | 10.0 | 15.0 | 0.00 | 0.00 | 0.00 | 58 | 1001.6 |
| 20260504193945 | 73 | 251 | 8.0 | 15.0 | 0.00 | 0.00 | 0.00 | 58 | 1001.6 |
| 20260504193443 | 73 | 227 | 12.0 | 18.0 | 0.00 | 0.00 | 0.00 | 58 | 1001.6 |
| 20260504192942 | 73 | 229 | 8.0 | 13.0 | 0.00 | 0.00 | 0.00 | 57 | 1001.6 |
| 20260504192438 | 73 | 225 | 13.0 | 20.0 | 0.00 | 0.00 | 0.00 | 58 | 1001.8 |
| 20260504191937 | 74 | 249 | 11.0 | 16.0 | 0.00 | 0.00 | 0.00 | 55 | 1001.7 |
| 20260504191435 | 74 | 218 | 11.0 | 16.0 | 0.00 | 0.00 | 0.00 | 55 | 1001.7 |
| 20260504190930 | 74 | 267 | 15.0 | 18.0 | 0.00 | 0.00 | 0.00 | 52 | 1001.8 |
| 20260504190426 | 74 | 267 | 15.0 | 18.0 | 0.00 | 0.00 | 0.00 | 52 | 1001.9 |
| 20260504185923 | 74 | 267 | 15.0 | 18.0 | 0.00 | 0.00 | 0.00 | 52 | 1001.9 |
| 20260504185420 | 74 | 267 | 15.0 | 18.0 | 0.00 | 0.00 | 0.00 | 52 | 1001.8 |
| 20260504184916 | 74 | 267 | 15.0 | 18.0 | 0.00 | 0.00 | 0.00 | 52 | 1001.9 |
| 20260504184412 | 74 | 267 | 15.0 | 18.0 | 0.00 | 0.00 | 0.00 | 52 | 1002.0 |
| 20260504183908 | 74 | 267 | 15.0 | 18.0 | 0.00 | 0.00 | 0.00 | 52 | 1002.0 |
| 20260504183405 | 73 | 204 | 9.0 | 11.0 | 0.00 | 0.00 | 0.00 | 48 | 1002.1 |
| 20260504182903 | 73 | 204 | 9.0 | 11.0 | 0.00 | 0.00 | 0.00 | 48 | 1002.1 |
| 20260504182400 | 73 | 204 | 9.0 | 11.0 | 0.00 | 0.00 | 0.00 | 48 | 1002.1 |
| 20260504181856 | 73 | 208 | 7.0 | 11.0 | 0.00 | 0.00 | 0.00 | 48 | 1002.2 |
| 20260504181354 | 73 | 257 | 16.0 | 18.0 | 0.00 | 0.00 | 0.00 | 46 | 1002.4 |
| 20260504180853 | 72 | 261 | 24.0 | 26.0 | 0.00 | 0.00 | 0.00 | 44 | 1002.3 |
| 20260504180351 | 72 | 234 | 18.0 | 24.0 | 0.00 | 0.00 | 0.00 | 45 | 1002.4 |
| 20260504175849 | 72 | 234 | 18.0 | 24.0 | 0.00 | 0.00 | 0.00 | 45 | 1002.4 |
| 20260504175345 | 73 | 236 | 24.0 | 26.0 | 0.00 | 0.00 | 0.00 | 43 | 1002.5 |
| 20260504174843 | 72 | 255 | 8.0 | 11.0 | 0.00 | 0.00 | 0.00 | 44 | 1002.8 |
| 20260504174341 | 72 | 255 | 12.0 | 13.0 | 0.00 | 0.00 | 0.00 | 44 | 1002.9 |
| 20260504173837 | 72 | 258 | 9.0 | 11.0 | 0.00 | 0.00 | 0.00 | 44 | 1002.9 |
| 20260504173334 | 72 | 249 | 12.0 | 15.0 | 0.00 | 0.00 | 0.00 | 48 | 1002.9 |
| 20260504172831 | 72 | 244 | 18.0 | 22.0 | 0.00 | 0.00 | 0.00 | 49 | 1003.1 |
| 20260504172328 | 72 | 241 | 11.0 | 11.0 | 0.00 | 0.00 | 0.00 | 51 | 1003.0 |
| 20260504171824 | 72 | 260 | 13.0 | 15.0 | 0.00 | 0.00 | 0.00 | 51 | 1003.1 |
| 20260504171321 | 71 | 246 | 8.0 | 11.0 | 0.00 | 0.00 | 0.00 | 48 | 1003.4 |
| 20260504170818 | 71 | 246 | 8.0 | 11.0 | 0.00 | 0.00 | 0.00 | 48 | 1003.2 |
| 20260504170315 | 71 | 164 | 11.0 | 16.0 | 0.00 | 0.00 | 0.00 | 47 | 1003.4 |
| 20260504160233 | 69 | 177 | 8.0 | 13.0 | 0.00 | 0.00 | 0.00 | 58 | 1004.1 |
| 20260504150659 | 65 | 230 | 9.0 | 11.0 | 0.00 | 0.00 | 0.00 | 64 | 1004.7 |
| 20260504150155 | 65 | 254 | 9.0 | 11.0 | 0.00 | 0.00 | 0.00 | 65 | 1004.6 |
| 20260504141124 | 63 | 233 | 7.0 | 9.0 | 0.00 | 0.00 | 0.00 | 69 | 1004.8 |
| 20260504140621 | 63 | 255 | 7.0 | 15.0 | 0.00 | 0.00 | 0.00 | 71 | 1004.6 |
| 20260504140117 | 62 | 243 | 6.0 | 9.0 | 0.00 | 0.00 | 0.00 | 71 | 1004.8 |
| 20260504130545 | 57 | 263 | 11.0 | 13.0 | 0.00 | 0.00 | 0.00 | 76 | 1005.4 |
| 20260504110433 | 45 | 224 | 2.0 | 4.0 | 0.00 | 0.00 | 0.00 | 93 | 1005.3 |
| 20260504100349 | 45 | 228 | 1.0 | 2.0 | 0.00 | 0.00 | 0.00 | 94 | 1005.1 |
| 20260504081743 | 46 | 233 | 1.0 | 4.0 | 0.00 | 0.00 | 0.00 | 91 | 1005.7 |
| 20260504081239 | 46 | 232 | 2.0 | 5.0 | 0.00 | 0.00 | 0.00 | 91 | 1006.0 |
| 20260504080735 | 46 | 243 | 1.0 | 4.0 | 0.00 | 0.00 | 0.00 | 91 | 1005.9 |
| 20260504080232 | 46 | 237 | 2.0 | 2.0 | 0.00 | 0.00 | 0.00 | 91 | 1006.0 |
| 20260504070200 | 47 | 203 | 3.0 | 5.0 | 0.00 | 0.00 | 0.00 | 88 | 1007.2 |
| 20260504060120 | 47 | 219 | 2.0 | 5.0 | 0.00 | 0.00 | 0.00 | 86 | 1007.7 |
| 20260504050548 | 48 | 219 | 4.0 | 7.0 | 0.00 | 0.00 | 0.00 | 85 | 1008.1 |
| 20260504045542 | 48 | 240 | 6.0 | 7.0 | 0.00 | 0.00 | 0.00 | 85 | 1008.2 |
| 20260504045037 | 48 | 208 | 4.0 | 7.0 | 0.00 | 0.00 | 0.00 | 84 | 1008.2 |
| 20260504044535 | 48 | 199 | 7.0 | 7.0 | 0.00 | 0.00 | 0.00 | 85 | 1008.1 |
| 20260504044032 | 48 | 185 | 4.0 | 7.0 | 0.00 | 0.00 | 0.00 | 84 | 1008.5 |
| 20260504043529 | 48 | 193 | 4.0 | 9.0 | 0.00 | 0.00 | 0.00 | 84 | 1008.4 |
| 20260504043026 | 48 | 211 | 4.0 | 5.0 | 0.00 | 0.00 | 0.00 | 84 | 1008.4 |
| 20260504042523 | 48 | 215 | 4.0 | 5.0 | 0.00 | 0.00 | 0.00 | 84 | 1008.2 |
| 20260504042020 | 48 | 210 | 3.0 | 5.0 | 0.00 | 0.00 | 0.00 | 84 | 1008.4 |
| 20260504041516 | 48 | 173 | 8.0 | 11.0 | 0.00 | 0.00 | 0.00 | 84 | 1008.5 |
| 20260504041012 | 48 | 232 | 4.0 | 5.0 | 0.00 | 0.00 | 0.00 | 83 | 1008.4 |
| 20260504040510 | 48 | 196 | 5.0 | 7.0 | 0.00 | 0.00 | 0.00 | 83 | 1008.4 |
| 20260504040006 | 48 | 224 | 4.0 | 5.0 | 0.00 | 0.00 | 0.00 | 83 | 1008.4 |
| 20260504035503 | 48 | 172 | 7.0 | 11.0 | 0.00 | 0.00 | 0.00 | 83 | 1008.6 |
| 20260504034959 | 48 | 209 | 7.0 | 9.0 | 0.00 | 0.00 | 0.00 | 82 | 1008.5 |
| 20260504034457 | 48 | 191 | 6.0 | 9.0 | 0.00 | 0.00 | 0.00 | 82 | 1008.6 |
| 20260504033954 | 48 | 223 | 7.0 | 7.0 | 0.00 | 0.00 | 0.00 | 82 | 1008.9 |
| 20260504033452 | 48 | 216 | 4.0 | 9.0 | 0.00 | 0.00 | 0.00 | 82 | 1008.9 |
| 20260504032949 | 48 | 190 | 4.0 | 7.0 | 0.00 | 0.00 | 0.00 | 82 | 1008.7 |
| 20260504032446 | 48 | 168 | 6.0 | 9.0 | 0.00 | 0.00 | 0.00 | 82 | 1009.1 |
| 20260504031942 | 48 | 196 | 5.0 | 7.0 | 0.00 | 0.00 | 0.00 | 81 | 1009.0 |
| 20260504031439 | 49 | 201 | 3.0 | 7.0 | 0.00 | 0.00 | 0.00 | 81 | 1009.0 |
| 20260504030936 | 49 | 235 | 5.0 | 9.0 | 0.00 | 0.00 | 0.00 | 81 | 1009.0 |
| 20260504030433 | 49 | 181 | 6.0 | 7.0 | 0.00 | 0.00 | 0.00 | 81 | 1009.1 |
| 20260504025929 | 49 | 192 | 3.0 | 7.0 | 0.00 | 0.00 | 0.00 | 81 | 1009.1 |
| 20260504025426 | 49 | 198 | 4.0 | 7.0 | 0.00 | 0.00 | 0.00 | 80 | 1008.9 |
| 20260504024923 | 49 | 216 | 4.0 | 13.0 | 0.00 | 0.00 | 0.00 | 80 | 1009.1 |
| 20260504024420 | 49 | 245 | 6.0 | 9.0 | 0.00 | 0.00 | 0.00 | 80 | 1009.2 |
| 20260504023917 | 49 | 227 | 3.0 | 5.0 | 0.00 | 0.00 | 0.00 | 80 | 1009.1 |
| 20260504023413 | 49 | 197 | 5.0 | 5.0 | 0.00 | 0.00 | 0.00 | 80 | 1009.2 |
| 20260504022909 | 49 | 184 | 5.0 | 7.0 | 0.00 | 0.00 | 0.00 | 80 | 1009.2 |
| 20260504022406 | 49 | 184 | 3.0 | 7.0 | 0.00 | 0.00 | 0.00 | 81 | 1009.2 |
| 20260504021903 | 49 | 153 | 10.0 | 13.0 | 0.00 | 0.00 | 0.00 | 80 | 1009.3 |
| 20260504021400 | 49 | 200 | 5.0 | 5.0 | 0.00 | 0.00 | 0.00 | 80 | 1009.2 |
| 20260504020857 | 49 | 179 | 6.0 | 9.0 | 0.00 | 0.00 | 0.00 | 81 | 1009.5 |
| 20260504020353 | 49 | 193 | 5.0 | 7.0 | 0.00 | 0.00 | 0.00 | 81 | 1009.4 |
| 20260504015849 | 49 | 181 | 7.0 | 13.0 | 0.00 | 0.00 | 0.00 | 81 | 1009.5 |
| 20260504015346 | 49 | 211 | 2.0 | 11.0 | 0.00 | 0.00 | 0.00 | 81 | 1009.3 |
| 20260504014842 | 49 | 192 | 3.0 | 9.0 | 0.00 | 0.00 | 0.00 | 81 | 1009.3 |
| 20260504014338 | 49 | 183 | 3.0 | 7.0 | 0.00 | 0.00 | 0.00 | 81 | 1009.4 |
| 20260504013836 | 49 | 195 | 4.0 | 7.0 | 0.00 | 0.00 | 0.00 | 80 | 1009.3 |
| 20260504013333 | 50 | 184 | 5.0 | 5.0 | 0.00 | 0.00 | 0.00 | 80 | 1009.5 |
| 20260504012830 | 50 | 205 | 4.0 | 5.0 | 0.00 | 0.00 | 0.00 | 80 | 1009.4 |
| 20260504012328 | 50 | 167 | 4.0 | 7.0 | 0.00 | 0.00 | 0.00 | 79 | 1009.5 |
| 20260504011825 | 50 | 184 | 5.0 | 7.0 | 0.00 | 0.00 | 0.00 | 80 | 1009.4 |
| 20260504011321 | 50 | 220 | 3.0 | 13.0 | 0.00 | 0.00 | 0.00 | 79 | 1009.5 |
| 20260504010817 | 50 | 195 | 3.0 | 9.0 | 0.00 | 0.00 | 0.00 | 79 | 1009.5 |
| 20260504010313 | 50 | 173 | 6.0 | 9.0 | 0.00 | 0.00 | 0.00 | 79 | 1009.5 |
| 20260504005810 | 50 | 172 | 3.0 | 7.0 | 0.00 | 0.00 | 0.00 | 79 | 1009.4 |
| 20260504005307 | 51 | 224 | 5.0 | 7.0 | 0.00 | 0.00 | 0.00 | 78 | 1009.4 |
| 20260504004804 | 51 | 220 | 7.0 | 11.0 | 0.00 | 0.00 | 0.00 | 79 | 1009.7 |
| 20260504004302 | 51 | 203 | 5.0 | 7.0 | 0.00 | 0.00 | 0.00 | 78 | 1009.6 |
| 20260504003758 | 51 | 224 | 7.0 | 7.0 | 0.00 | 0.00 | 0.00 | 79 | 1009.7 |
| 20260504003255 | 51 | 201 | 4.0 | 9.0 | 0.00 | 0.00 | 0.00 | 78 | 1009.7 |
| 20260504002751 | 51 | 201 | 2.0 | 7.0 | 0.00 | 0.00 | 0.00 | 78 | 1009.5 |
| 20260504002249 | 51 | 225 | 4.0 | 7.0 | 0.00 | 0.00 | 0.00 | 79 | 1009.7 |
| 20260504001746 | 51 | 172 | 5.0 | 7.0 | 0.00 | 0.00 | 0.00 | 77 | 1009.6 |
| 20260504001243 | 51 | 200 | 4.0 | 7.0 | 0.00 | 0.00 | 0.00 | 77 | 1009.5 |
| 20260504000740 | 51 | 193 | 6.0 | 7.0 | 0.00 | 0.00 | 0.00 | 77 | 1009.6 |
| 20260504000237 | 52 | 225 | 4.0 | 7.0 | 0.00 | 0.00 | 0.00 | 78 | 1010.0 |
| 20260503235735 | 52 | 197 | 6.0 | 7.0 | 0.00 | 0.00 | 0.00 | 77 | 1009.7 |
| 20260503235232 | 52 | 163 | 6.0 | 11.0 | 0.00 | 0.00 | 0.00 | 77 | 1009.9 |
| 20260503234730 | 52 | 203 | 4.0 | 15.0 | 0.00 | 0.00 | 0.00 | 77 | 1009.9 |
| 20260503234227 | 52 | 215 | 7.0 | 13.0 | 0.00 | 0.00 | 0.00 | 76 | 1010.0 |
| 20260503233725 | 52 | 183 | 5.0 | 7.0 | 0.00 | 0.00 | 0.00 | 77 | 1009.8 |
| 20260503233220 | 52 | 186 | 3.0 | 5.0 | 0.00 | 0.00 | 0.00 | 77 | 1010.0 |
| 20260503232717 | 52 | 233 | 3.0 | 7.0 | 0.00 | 0.00 | 0.00 | 77 | 1010.3 |
| 20260503232214 | 52 | 218 | 4.0 | 11.0 | 0.00 | 0.00 | 0.00 | 76 | 1009.9 |
| 20260503231713 | 52 | 207 | 5.0 | 9.0 | 0.00 | 0.00 | 0.00 | 76 | 1010.2 |
| 20260503231209 | 52 | 226 | 6.0 | 7.0 | 0.00 | 0.00 | 0.00 | 76 | 1010.3 |
| 20260503230705 | 52 | 198 | 4.0 | 5.0 | 0.00 | 0.00 | 0.00 | 76 | 1010.6 |
| 20260503230202 | 52 | 229 | 9.0 | 18.0 | 0.00 | 0.00 | 0.00 | 76 | 1010.3 |
| 20260503225659 | 52 | 219 | 4.0 | 5.0 | 0.00 | 0.00 | 0.00 | 76 | 1010.3 |
| 20260503225154 | 52 | 231 | 11.0 | 11.0 | 0.00 | 0.00 | 0.00 | 76 | 1010.7 |
| 20260503224651 | 52 | 247 | 4.0 | 7.0 | 0.00 | 0.00 | 0.00 | 76 | 1010.8 |
| 20260503224149 | 52 | 192 | 4.0 | 9.0 | 0.00 | 0.00 | 0.00 | 76 | 1010.9 |
| 20260503223647 | 53 | 244 | 8.0 | 9.0 | 0.00 | 0.00 | 0.00 | 74 | 1010.7 |
| 20260503223143 | 53 | 232 | 15.0 | 18.0 | 0.00 | 0.00 | 0.00 | 72 | 1011.0 |
| 20260503222640 | 53 | 217 | 4.0 | 9.0 | 0.00 | 0.00 | 0.00 | 73 | 1011.0 |
| 20260503222138 | 53 | 245 | 11.0 | 18.0 | 0.00 | 0.00 | 0.00 | 72 | 1011.0 |
| 20260503221636 | 53 | 241 | 11.0 | 16.0 | 0.00 | 0.00 | 0.00 | 73 | 1011.1 |
| 20260503221133 | 53 | 259 | 11.0 | 18.0 | 0.00 | 0.00 | 0.00 | 73 | 1011.2 |
| 20260503220630 | 53 | 241 | 10.0 | 13.0 | 0.00 | 0.00 | 0.00 | 74 | 1011.0 |
| 20260503220126 | 53 | 235 | 21.0 | 26.0 | 0.00 | 0.00 | 0.00 | 71 | 1011.2 |
| 20260503215624 | 53 | 223 | 12.0 | 22.0 | 0.00 | 0.00 | 0.00 | 72 | 1011.0 |
| 20260503215120 | 53 | 223 | 14.0 | 26.0 | 0.00 | 0.00 | 0.00 | 70 | 1011.1 |
| 20260503214619 | 53 | 240 | 19.0 | 26.0 | 0.00 | 0.00 | 0.00 | 71 | 1011.2 |
| 20260503214114 | 54 | 226 | 19.0 | 33.0 | 0.00 | 0.00 | 0.00 | 69 | 1011.1 |
| 20260503213609 | 54 | 265 | 15.0 | 20.0 | 0.00 | 0.00 | 0.00 | 71 | 1011.2 |
| 20260503213104 | 55 | 266 | 24.0 | 37.0 | 0.00 | 0.00 | 0.00 | 68 | 1011.1 |
| 20260503212602 | 55 | 251 | 22.0 | 27.0 | 0.00 | 0.00 | 0.00 | 68 | 1010.9 |
| 20260503212059 | 56 | 215 | 21.0 | 40.0 | 0.00 | 0.00 | 0.00 | 67 | 1010.9 |
| 20260503211556 | 57 | 248 | 17.0 | 22.0 | 0.00 | 0.00 | 0.00 | 64 | 1010.6 |
| 20260503211051 | 57 | 233 | 24.0 | 31.0 | 0.00 | 0.00 | 0.00 | 62 | 1010.6 |
| 20260503210549 | 58 | 305 | 18.0 | 24.0 | 0.00 | 0.00 | 0.00 | 59 | 1010.7 |
| 20260503210044 | 58 | 243 | 15.0 | 26.0 | 0.00 | 0.00 | 0.00 | 57 | 1010.3 |
| 20260503205541 | 60 | 224 | 18.0 | 27.0 | 0.00 | 0.00 | 0.00 | 54 | 1010.4 |
| 20260503205038 | 59 | 262 | 15.0 | 22.0 | 0.00 | 0.00 | 0.00 | 56 | 1010.6 |
| 20260503204534 | 59 | 255 | 19.0 | 33.0 | 0.00 | 0.00 | 0.00 | 55 | 1010.4 |
| 20260503204031 | 60 | 245 | 20.0 | 24.0 | 0.00 | 0.00 | 0.00 | 54 | 1010.6 |
| 20260503203529 | 60 | 235 | 8.0 | 24.0 | 0.00 | 0.00 | 0.00 | 54 | 1010.4 |
| 20260503203026 | 60 | 248 | 17.0 | 20.0 | 0.00 | 0.00 | 0.00 | 54 | 1010.6 |
| 20260503202524 | 60 | 251 | 7.0 | 9.0 | 0.00 | 0.00 | 0.00 | 51 | 1010.6 |